2000 EW70 

Epoch 2000 Mar. 17.0 TT = JDT 2451620.5                 Nakano

M 267.29720              (2000.0)            P               Q

n   1.08772194     Peri.  125.46912     +0.55767697     +0.83005388

a   0.9363915      Node   178.41908     -0.78916741     +0.53118643

e   0.3215701      Incl.    5.48382     -0.25731535     +0.16985738

P   0.91           H   20.8           G   0.15           U   *

Residuals in seconds of arc 

000309 704  0.3+  0.0     000311 670  0.3-  0.1-    000313 850  0.2+  0.1-  

000309 704  0.3+  0.3-    000311 670  1.5-  0.3-    000313 850  0.1+  0.2-  

000309 704  0.2+  0.4-    000311 670  1.0-  0.4-    000313 704  0.0   0.1+  

000310 704  0.1+  0.3+    000311 046  0.6+  0.7-    000313 704  0.1+  0.1-  

000310 704  0.0   0.1-    000311 046  0.3+  0.3+    000313 704  0.1-  0.5+  

000310 704  0.1+  0.2+    000311 046  0.9+  0.2-    000313 704  0.4+  0.1+  

000310 704  0.0   0.2-    000311 046  0.7+  0.4-    000313 704  0.1-  0.2+  

000310 704  0.1+  0.3+    000312 858  0.4-  0.3+    000313 704  0.4-  0.1+  

000310 704  0.1+  0.1-    000312 858  0.0   0.1-    000313 704  0.2+  0.1-  

000310 704  0.1+  0.2+    000312 858  0.0   0.3-    000313 704  0.5+  0.2+  

000310 704  0.1-  0.3+    000312 670  1.5-  0.8-    000313 704  0.3-  0.0   

000310 704  0.1-  0.1-    000312 704  0.1+  0.1+    000313 704  0.2+  0.1-  

000310 704  0.1+  0.3+    000312 704  0.1+  0.3+    000313 704  0.5+  0.5+  

000310 620  0.1-  0.4+    000312 704  0.0   0.0     000313 704  0.3-  0.5-  

000310 620  0.3-  0.1+    000312 704  0.3+  0.0     000313 704  0.2+  0.2-  

000310 620  0.3-  0.3+    000312 704  0.0   0.1+    000313 704  0.3+  0.2+  

000310 620  1.1-  0.2-    000312 704  0.4+  0.4+    000313 704  0.4-  0.5-  

000310 461  0.2+  0.4+    000312 704  0.4+  0.3+    000313 587  1.0+  0.7+  

000310 461  0.1+  0.5-    000312 704  0.3+  0.4+    000313 587  0.4+  0.7-  

000310 461  0.1+  0.0     000312 704  0.1+  0.2+    000314 355  0.6-  0.6-  

000311 858  0.1-  0.1+    000312 704  0.0   0.5+    000314 355  0.6-  0.1+  

000311 858  0.1+  0.2-    000312 670  0.5+  0.2-    000314 355  0.5-  0.2+  

000311 858  0.2-  0.1-    000313 850  0.1-  0.1-                            

 

NAKANO

         **** Don't distribute anyone except personal use only ****

                (C) Copyright 2000 OAA/ComputingSection

write mail from CFAD0::NAKANO on 2000-03-15 23:50:44(JST).







–ß‚è‚Ü‚·B